{"data":{"norad_id":62883,"intl_designator":"2025-024E","name":"STARLINK-11419 [DTC]","alt_names":[],"object_type":"PAYLOAD","status":"ACTIVE","operator":null,"country":"US","launch_date":"2025-02-04","launch_site_code":"AFETR","launch_vehicle":null,"mission":null,"orbit_class":"UNKNOWN","rcs_meters":null,"size_class":null,"mass_kg":null,"dimensions":null,"purposes":["comms"],"wikipedia_slug":null,"has_3d_model":false,"image_url":null,"decayed_at":null,"tle_current":{"epoch":"2026-05-24T12:36:24.939360Z","epoch_age_seconds":115446,"freshness":"FRESH","line1":"1 62883U 25024E   26144.52528865  .00199530  00000+0  15183-2 0  9994","line2":"2 62883  43.0005  84.3373 0000682 277.6476  82.4314 15.70888529 75393","mean_motion":15.70888529,"eccentricity":6.82e-5,"inclination_deg":43.0005,"raan_deg":84.3373,"arg_perigee_deg":277.6476,"mean_anomaly_deg":82.4314,"bstar":0.0015183,"rev_number":7539,"period_min":91.667866523711,"perigee_km":355.89706772787,"apogee_km":356.81565262219,"semimajor_km":6734.493360175,"source":"CELESTRAK","updated_at":"2026-05-25T13:38:19.788931Z"}}}